Year,Month,Day,Hour,Minute,Value (Times are PST for temperature in C)
2009,02,20,00,00,0.00
2009,02,20,00,01,0.00
2009,02,20,00,02,0.00
2009,02,20,00,03,-0.10
2009,02,20,00,04,-0.10
2009,02,20,00,05,-0.10
2009,02,20,00,06,-0.10
2009,02,20,00,07,-0.10
2009,02,20,00,08,-0.20
2009,02,20,00,09,-0.20
2009,02,20,00,10,-0.20
2009,02,20,00,11,-0.20
2009,02,20,00,12,-0.20
2009,02,20,00,13,-0.30
2009,02,20,00,14,-0.30
2009,02,20,00,15,-0.30
2009,02,20,00,16,-0.30
2009,02,20,00,17,-0.30
2009,02,20,00,18,-0.30
2009,02,20,00,19,-0.30
2009,02,20,00,20,-0.30
2009,02,20,00,21,-0.30
2009,02,20,00,22,-0.30
2009,02,20,00,23,-0.30
2009,02,20,00,24,-0.30
2009,02,20,00,25,-0.30
2009,02,20,00,26,-0.30
2009,02,20,00,27,-0.30
2009,02,20,00,28,-0.30
2009,02,20,00,29,-0.20
2009,02,20,00,30,-0.20
2009,02,20,00,31,-0.20
2009,02,20,00,32,-0.20
2009,02,20,00,33,-0.30
2009,02,20,00,34,-0.30
2009,02,20,00,35,-0.30
2009,02,20,00,36,-0.30
2009,02,20,00,37,-0.30
2009,02,20,00,38,-0.30
2009,02,20,00,39,-0.30
2009,02,20,00,40,-0.30
2009,02,20,00,41,-0.30
2009,02,20,00,42,-0.30
2009,02,20,00,43,-0.30
2009,02,20,00,44,-0.30
2009,02,20,00,45,-0.20
2009,02,20,00,46,-0.10
2009,02,20,00,47,0.00
2009,02,20,00,48,0.00
2009,02,20,00,49,0.10
2009,02,20,00,50,0.20
2009,02,20,00,51,0.30
2009,02,20,00,52,0.30
2009,02,20,00,53,0.30
2009,02,20,00,54,0.30
2009,02,20,00,55,0.30
2009,02,20,00,56,0.30
2009,02,20,00,57,0.30
2009,02,20,00,58,0.30
2009,02,20,00,59,0.30
2009,02,20,01,00,0.30
2009,02,20,01,01,0.30
2009,02,20,01,02,0.30
2009,02,20,01,03,0.30
2009,02,20,01,04,0.30
2009,02,20,01,05,0.30
2009,02,20,01,06,0.30
2009,02,20,01,07,0.20
2009,02,20,01,08,0.20
2009,02,20,01,09,0.20
2009,02,20,01,10,0.10
2009,02,20,01,11,0.10
2009,02,20,01,12,0.00
2009,02,20,01,13,0.00
2009,02,20,01,14,-0.10
2009,02,20,01,15,-0.10
2009,02,20,01,16,-0.10
2009,02,20,01,17,-0.20
2009,02,20,01,18,-0.20
2009,02,20,01,19,-0.20
2009,02,20,01,20,-0.30
2009,02,20,01,21,-0.30
2009,02,20,01,22,-0.30
2009,02,20,01,23,-0.30
2009,02,20,01,24,-0.30
2009,02,20,01,25,-0.30
2009,02,20,01,26,-0.40
2009,02,20,01,27,-0.40
2009,02,20,01,28,-0.40
2009,02,20,01,29,-0.40
2009,02,20,01,30,-0.40
2009,02,20,01,31,-0.50
2009,02,20,01,32,-0.50
2009,02,20,01,33,-0.50
2009,02,20,01,34,-0.50
2009,02,20,01,35,-0.50
2009,02,20,01,36,-0.50
2009,02,20,01,37,-0.50
2009,02,20,01,38,-0.40
2009,02,20,01,39,-0.40
2009,02,20,01,40,-0.40
2009,02,20,01,41,-0.30
2009,02,20,01,42,-0.30
2009,02,20,01,43,-0.10
2009,02,20,01,44,-0.10
2009,02,20,01,45,0.00
2009,02,20,01,46,0.10
2009,02,20,01,47,0.20
2009,02,20,01,48,0.30
2009,02,20,01,49,0.40
2009,02,20,01,50,0.50
2009,02,20,01,51,0.50
2009,02,20,01,52,0.60
2009,02,20,01,53,0.70
2009,02,20,01,54,0.70
2009,02,20,01,55,0.70
2009,02,20,01,56,0.70
2009,02,20,01,57,0.80
2009,02,20,01,58,0.80
2009,02,20,01,59,0.80
2009,02,20,02,00,0.90
2009,02,20,02,01,0.90
2009,02,20,02,02,0.90
2009,02,20,02,03,1.00
2009,02,20,02,04,1.10
2009,02,20,02,05,1.10
2009,02,20,02,06,1.20
2009,02,20,02,07,1.20
2009,02,20,02,08,1.20
2009,02,20,02,09,1.20
2009,02,20,02,10,1.20
2009,02,20,02,11,1.20
2009,02,20,02,12,1.20
2009,02,20,02,13,1.20
2009,02,20,02,14,1.20
2009,02,20,02,15,1.20
2009,02,20,02,16,1.20
2009,02,20,02,17,1.30
2009,02,20,02,18,1.30
2009,02,20,02,19,1.30
2009,02,20,02,20,1.30
2009,02,20,02,21,1.30
2009,02,20,02,22,1.30
2009,02,20,02,23,1.30
2009,02,20,02,24,1.30
2009,02,20,02,25,1.30
2009,02,20,02,26,1.30
2009,02,20,02,27,1.30
2009,02,20,02,28,1.20
2009,02,20,02,29,1.20
2009,02,20,02,30,1.10
2009,02,20,02,31,1.00
2009,02,20,02,32,0.90
2009,02,20,02,33,0.80
2009,02,20,02,34,0.80
2009,02,20,02,35,0.80
2009,02,20,02,36,0.70
2009,02,20,02,37,0.70
2009,02,20,02,38,0.60
2009,02,20,02,39,0.60
2009,02,20,02,40,0.50
2009,02,20,02,41,0.50
2009,02,20,02,42,0.50
2009,02,20,02,43,0.50
2009,02,20,02,44,0.60
2009,02,20,02,45,0.60
2009,02,20,02,46,0.60
2009,02,20,02,47,0.70
2009,02,20,02,48,0.70
2009,02,20,02,49,0.70
2009,02,20,02,50,0.70
2009,02,20,02,51,0.70
2009,02,20,02,52,0.60
2009,02,20,02,53,0.50
2009,02,20,02,54,0.50
2009,02,20,02,55,0.40
2009,02,20,02,56,0.30
2009,02,20,02,57,0.30
2009,02,20,02,58,0.20
2009,02,20,02,59,0.20
2009,02,20,03,00,0.20
2009,02,20,03,01,0.20
2009,02,20,03,02,0.20
2009,02,20,03,03,0.10
2009,02,20,03,04,0.10
2009,02,20,03,05,0.00
2009,02,20,03,06,0.00
2009,02,20,03,07,0.00
2009,02,20,03,08,0.00
2009,02,20,03,09,0.00
2009,02,20,03,10,0.00
2009,02,20,03,11,-0.10
2009,02,20,03,12,-0.10
2009,02,20,03,13,-0.10
2009,02,20,03,14,-0.20
2009,02,20,03,15,-0.20
2009,02,20,03,16,-0.20
2009,02,20,03,17,-0.20
2009,02,20,03,18,-0.20
2009,02,20,03,19,-0.20
2009,02,20,03,20,-0.20
2009,02,20,03,21,-0.20
2009,02,20,03,22,-0.20
2009,02,20,03,23,-0.20
2009,02,20,03,24,-0.20
2009,02,20,03,25,-0.20
2009,02,20,03,26,-0.30
2009,02,20,03,27,-0.30
2009,02,20,03,28,-0.30
2009,02,20,03,29,-0.30
2009,02,20,03,30,-0.40
2009,02,20,03,31,-0.40
2009,02,20,03,32,-0.40
2009,02,20,03,33,-0.50
2009,02,20,03,34,-0.50
2009,02,20,03,35,-0.60
2009,02,20,03,36,-0.60
2009,02,20,03,37,-0.70
2009,02,20,03,38,-0.70
2009,02,20,03,39,-0.80
2009,02,20,03,40,-0.80
2009,02,20,03,41,-0.80
2009,02,20,03,42,-0.80
2009,02,20,03,43,-0.80
2009,02,20,03,44,-0.80
2009,02,20,03,45,-0.80
2009,02,20,03,46,-0.80
2009,02,20,03,47,-0.90
2009,02,20,03,48,-0.90
2009,02,20,03,49,-0.90
2009,02,20,03,50,-0.90
2009,02,20,03,51,-0.90
2009,02,20,03,52,-0.90
2009,02,20,03,53,-0.90
2009,02,20,03,54,-0.90
2009,02,20,03,55,-0.90
2009,02,20,03,56,-0.80
2009,02,20,03,57,-0.80
2009,02,20,03,58,-0.70
2009,02,20,03,59,-0.70
2009,02,20,04,00,-0.60
2009,02,20,04,01,-0.60
2009,02,20,04,02,-0.60
2009,02,20,04,03,-0.60
2009,02,20,04,05,-0.60
2009,02,20,04,06,-0.60
2009,02,20,04,24,-1.20
2009,02,20,04,39,-0.40
2009,02,20,04,49,0.70
2009,02,20,05,03,1.40
2009,02,20,05,08,1.60
2009,02,20,05,09,1.60
2009,02,20,05,10,1.70
2009,02,20,05,11,1.70
2009,02,20,05,12,1.70
2009,02,20,05,13,1.70
2009,02,20,05,14,1.70
2009,02,20,05,15,1.70
2009,02,20,05,16,1.70
2009,02,20,05,17,1.70
2009,02,20,05,18,1.80
2009,02,20,05,19,1.80
2009,02,20,05,20,1.80
2009,02,20,05,21,1.80
2009,02,20,05,22,1.80
2009,02,20,05,23,1.80
2009,02,20,05,24,1.90
2009,02,20,05,25,1.90
2009,02,20,05,26,1.80
2009,02,20,05,27,1.80
2009,02,20,05,28,1.70
2009,02,20,05,29,1.70
2009,02,20,05,30,1.60
2009,02,20,05,31,1.50
2009,02,20,05,32,1.40
2009,02,20,05,33,1.40
2009,02,20,05,34,1.30
2009,02,20,05,35,1.30
2009,02,20,05,36,1.30
2009,02,20,05,37,1.30
2009,02,20,05,38,1.30
2009,02,20,05,39,1.30
2009,02,20,05,40,1.30
2009,02,20,05,41,1.30
2009,02,20,05,42,1.20
2009,02,20,05,43,1.10
2009,02,20,05,44,1.10
2009,02,20,05,45,1.00
2009,02,20,05,46,0.90
2009,02,20,05,47,0.90
2009,02,20,05,48,0.80
2009,02,20,05,49,0.80
2009,02,20,05,50,0.80
2009,02,20,05,51,0.80
2009,02,20,05,52,0.80
2009,02,20,05,53,0.80
2009,02,20,05,54,0.80
2009,02,20,05,55,0.80
2009,02,20,05,56,0.70
2009,02,20,05,57,0.70
2009,02,20,05,58,0.60
2009,02,20,05,59,0.60
2009,02,20,06,00,0.60
2009,02,20,06,01,0.50
2009,02,20,06,02,0.40
2009,02,20,06,03,0.40
2009,02,20,06,04,0.40
2009,02,20,06,05,0.40
2009,02,20,06,06,0.40
2009,02,20,06,07,0.30
2009,02,20,06,08,0.30
2009,02,20,06,09,0.20
2009,02,20,06,10,0.20
2009,02,20,06,11,0.20
2009,02,20,06,12,0.10
2009,02,20,06,13,0.10
2009,02,20,06,14,0.00
2009,02,20,06,15,0.00
2009,02,20,06,16,-0.10
2009,02,20,06,17,-0.10
2009,02,20,06,18,-0.20
2009,02,20,06,19,-0.20
2009,02,20,06,20,-0.20
2009,02,20,06,21,-0.30
2009,02,20,06,22,-0.30
2009,02,20,06,23,-0.40
2009,02,20,06,24,-0.40
2009,02,20,06,25,-0.40
2009,02,20,06,26,-0.50
2009,02,20,06,27,-0.50
2009,02,20,06,28,-0.50
2009,02,20,06,29,-0.60
2009,02,20,06,30,-0.60
2009,02,20,06,31,-0.60
2009,02,20,06,32,-0.60
2009,02,20,06,33,-0.60
2009,02,20,06,34,-0.60
2009,02,20,06,35,-0.70
2009,02,20,06,36,-0.70
2009,02,20,06,37,-0.70
2009,02,20,06,38,-0.80
2009,02,20,06,39,-0.80
2009,02,20,06,40,-0.80
2009,02,20,06,41,-0.80
2009,02,20,06,42,-0.80
2009,02,20,06,43,-0.80
2009,02,20,06,44,-0.70
2009,02,20,06,45,-0.70
2009,02,20,06,46,-0.70
2009,02,20,06,47,-0.60
2009,02,20,06,48,-0.60
2009,02,20,06,49,-0.60
2009,02,20,06,50,-0.60
2009,02,20,06,51,-0.60
2009,02,20,06,52,-0.50
2009,02,20,06,53,-0.50
2009,02,20,06,54,-0.40
2009,02,20,06,55,-0.40
2009,02,20,06,56,-0.40
2009,02,20,06,57,-0.30
2009,02,20,06,58,-0.30
2009,02,20,06,59,-0.20
2009,02,20,07,00,-0.10
2009,02,20,07,01,0.00
2009,02,20,07,02,0.10
2009,02,20,07,03,0.20
2009,02,20,07,04,0.30
2009,02,20,07,05,0.40
2009,02,20,07,06,0.50
2009,02,20,07,07,0.60
2009,02,20,07,08,0.70
2009,02,20,07,09,0.80
2009,02,20,07,10,0.80
2009,02,20,07,11,0.90
2009,02,20,07,12,1.00
2009,02,20,07,13,1.00
2009,02,20,07,14,1.10
2009,02,20,07,15,1.10
2009,02,20,07,16,1.20
2009,02,20,07,17,1.20
2009,02,20,07,18,1.20
2009,02,20,07,19,1.20
2009,02,20,07,20,1.20
2009,02,20,07,21,1.20
2009,02,20,07,22,1.20
2009,02,20,07,23,1.10
2009,02,20,07,24,1.10
2009,02,20,07,25,1.10
2009,02,20,07,26,1.20
2009,02,20,07,27,1.20
2009,02,20,07,28,1.20
2009,02,20,07,29,1.20
2009,02,20,07,30,1.10
2009,02,20,07,31,1.10
2009,02,20,07,32,1.10
2009,02,20,07,33,1.10
2009,02,20,07,34,1.10
2009,02,20,07,35,1.00
2009,02,20,07,36,1.00
2009,02,20,07,37,1.00
2009,02,20,07,38,1.00
2009,02,20,07,39,1.10
2009,02,20,07,40,1.10
2009,02,20,07,41,1.20
2009,02,20,07,42,1.20
2009,02,20,07,43,1.20
2009,02,20,07,44,1.30
2009,02,20,07,45,1.30
2009,02,20,07,46,1.30
2009,02,20,07,47,1.30
2009,02,20,07,48,1.30
2009,02,20,07,49,1.30
2009,02,20,07,50,1.20
2009,02,20,07,51,1.10
2009,02,20,07,52,1.10
2009,02,20,07,53,1.00
2009,02,20,07,54,1.00
2009,02,20,07,55,1.00
2009,02,20,07,56,1.00
2009,02,20,07,57,1.00
2009,02,20,07,58,1.00
2009,02,20,07,59,1.00
2009,02,20,08,00,1.10
2009,02,20,08,01,1.10
2009,02,20,08,02,1.10
2009,02,20,08,03,1.10
2009,02,20,08,04,1.10
2009,02,20,08,05,1.10
2009,02,20,08,06,1.10
2009,02,20,08,07,1.10
2009,02,20,08,08,1.20
2009,02,20,08,09,1.20
2009,02,20,08,10,1.20
2009,02,20,08,11,1.30
2009,02,20,08,12,1.30
2009,02,20,08,13,1.30
2009,02,20,08,14,1.30
2009,02,20,08,15,1.40
2009,02,20,08,16,1.50
2009,02,20,08,17,1.50
2009,02,20,08,18,1.60
2009,02,20,08,19,1.70
2009,02,20,08,20,1.80
2009,02,20,08,21,1.80
2009,02,20,08,22,1.90
2009,02,20,08,23,2.00
2009,02,20,08,24,2.20
2009,02,20,08,25,2.30
2009,02,20,08,26,2.50
2009,02,20,08,27,2.60
2009,02,20,08,28,2.70
2009,02,20,08,29,2.80
2009,02,20,08,30,2.90
2009,02,20,08,31,3.00
2009,02,20,08,32,3.10
2009,02,20,08,33,3.20
2009,02,20,08,34,3.30
2009,02,20,08,35,3.40
2009,02,20,08,36,3.40
2009,02,20,08,37,3.50
2009,02,20,08,38,3.60
2009,02,20,08,39,3.60
2009,02,20,08,40,3.70
2009,02,20,08,41,3.80
2009,02,20,08,42,3.80
2009,02,20,08,43,3.90
2009,02,20,08,44,3.90
2009,02,20,08,45,4.00
2009,02,20,08,46,4.10
2009,02,20,08,47,4.20
2009,02,20,08,48,4.20
2009,02,20,08,49,4.30
2009,02,20,08,50,4.40
2009,02,20,08,51,4.50
2009,02,20,08,52,4.50
2009,02,20,08,53,4.60
2009,02,20,08,54,4.70
2009,02,20,08,55,4.70
2009,02,20,08,56,4.80
2009,02,20,08,57,4.80
2009,02,20,08,58,4.90
2009,02,20,08,59,5.00
2009,02,20,09,00,5.10
2009,02,20,09,01,5.20
2009,02,20,09,02,5.20
2009,02,20,09,03,5.30
2009,02,20,09,04,5.30
2009,02,20,09,05,5.40
2009,02,20,09,06,5.50
2009,02,20,09,07,5.50
2009,02,20,09,08,5.60
2009,02,20,09,09,5.60
2009,02,20,09,10,5.70
2009,02,20,09,11,5.70
2009,02,20,09,12,5.70
2009,02,20,09,13,5.80
2009,02,20,09,14,5.80
2009,02,20,09,15,5.80
2009,02,20,09,16,5.80
2009,02,20,09,17,5.90
2009,02,20,09,18,5.90
2009,02,20,09,19,5.90
2009,02,20,09,20,5.90
2009,02,20,09,21,5.90
2009,02,20,09,22,6.00
2009,02,20,09,23,6.00
2009,02,20,09,24,6.00
2009,02,20,09,25,6.10
2009,02,20,09,26,6.10
2009,02,20,09,27,6.10
2009,02,20,09,28,6.10
2009,02,20,09,29,6.10
2009,02,20,09,30,6.10
2009,02,20,09,31,6.10
2009,02,20,09,32,6.20
2009,02,20,09,33,6.20
2009,02,20,09,34,6.20
2009,02,20,09,35,6.20
2009,02,20,09,36,6.20
2009,02,20,09,37,6.20
2009,02,20,09,38,6.20
2009,02,20,09,39,6.20
2009,02,20,09,40,6.20
2009,02,20,09,41,6.20
2009,02,20,09,42,6.20
2009,02,20,09,43,6.30
2009,02,20,09,44,6.30
2009,02,20,09,45,6.30
2009,02,20,09,46,6.30
2009,02,20,09,47,6.30
2009,02,20,09,48,6.40
2009,02,20,09,49,6.40
2009,02,20,09,50,6.40
2009,02,20,09,51,6.40
2009,02,20,09,52,6.40
2009,02,20,09,53,6.40
2009,02,20,09,54,6.50
2009,02,20,09,55,6.50
2009,02,20,09,56,6.60
2009,02,20,09,57,6.60
2009,02,20,09,58,6.60
2009,02,20,09,59,6.60
2009,02,20,10,00,6.70
2009,02,20,10,01,6.70
2009,02,20,10,02,6.70
2009,02,20,10,03,6.70
2009,02,20,10,04,6.70
2009,02,20,10,05,6.80
2009,02,20,10,06,6.80
2009,02,20,10,07,6.80
2009,02,20,10,08,6.80
2009,02,20,10,09,6.80
2009,02,20,10,10,6.80
2009,02,20,10,11,6.80
2009,02,20,10,12,6.80
2009,02,20,10,13,6.80
2009,02,20,10,14,6.80
2009,02,20,10,15,6.80
2009,02,20,10,16,6.80
2009,02,20,10,17,6.80
2009,02,20,10,18,6.80
2009,02,20,10,19,6.90
2009,02,20,10,20,6.90
2009,02,20,10,21,6.90
2009,02,20,10,22,6.90
2009,02,20,10,23,7.00
2009,02,20,10,24,7.00
2009,02,20,10,25,7.10
2009,02,20,10,26,7.10
2009,02,20,10,27,7.20
2009,02,20,10,28,7.20
2009,02,20,10,29,7.20
2009,02,20,10,30,7.20
2009,02,20,10,31,7.20
2009,02,20,10,32,7.20
2009,02,20,10,33,7.30
2009,02,20,10,34,7.30
2009,02,20,10,35,7.30
2009,02,20,10,36,7.20
2009,02,20,10,37,7.30
2009,02,20,10,38,7.30
2009,02,20,10,39,7.30
2009,02,20,10,40,7.40
2009,02,20,10,41,7.40
2009,02,20,10,42,7.50
2009,02,20,10,43,7.50
2009,02,20,10,44,7.60
2009,02,20,10,45,7.60
2009,02,20,10,46,7.60
2009,02,20,10,47,7.60
2009,02,20,10,48,7.60
2009,02,20,10,49,7.70
2009,02,20,10,50,7.70
2009,02,20,10,51,7.70
2009,02,20,10,52,7.70
2009,02,20,10,53,7.70
2009,02,20,10,54,7.70
2009,02,20,10,55,7.80
2009,02,20,10,56,7.80
2009,02,20,10,57,7.80
2009,02,20,10,58,7.80
2009,02,20,10,59,7.80
2009,02,20,11,00,7.80
2009,02,20,11,01,7.80
2009,02,20,11,02,7.80
2009,02,20,11,03,7.80
2009,02,20,11,04,7.80
2009,02,20,11,05,7.80
2009,02,20,11,06,7.80
2009,02,20,11,07,7.90
2009,02,20,11,08,7.90
2009,02,20,11,09,8.00
2009,02,20,11,10,8.00
2009,02,20,11,11,8.00
2009,02,20,11,12,8.00
2009,02,20,11,13,8.00
2009,02,20,11,14,8.00
2009,02,20,11,15,8.00
2009,02,20,11,16,7.90
2009,02,20,11,17,7.90
2009,02,20,11,18,7.90
2009,02,20,11,19,7.90
2009,02,20,11,20,7.90
2009,02,20,11,21,8.00
2009,02,20,11,22,8.00
2009,02,20,11,23,8.10
2009,02,20,11,24,8.10
2009,02,20,11,25,8.10
2009,02,20,11,26,8.10
2009,02,20,11,27,8.10
2009,02,20,11,28,8.10
2009,02,20,11,29,8.10
2009,02,20,11,30,8.10
2009,02,20,11,31,8.20
2009,02,20,11,32,8.20
2009,02,20,11,33,8.20
2009,02,20,11,34,8.30
2009,02,20,11,35,8.30
2009,02,20,11,36,8.40
2009,02,20,11,37,8.30
2009,02,20,11,38,8.30
2009,02,20,11,39,8.30
2009,02,20,11,40,8.30
2009,02,20,11,41,8.30
2009,02,20,11,42,8.30
2009,02,20,11,43,8.30
2009,02,20,11,44,8.30
2009,02,20,11,45,8.30
2009,02,20,11,46,8.40
2009,02,20,11,47,8.40
2009,02,20,11,48,8.40
2009,02,20,11,49,8.40
2009,02,20,11,50,8.40
2009,02,20,11,51,8.40
2009,02,20,11,52,8.40
2009,02,20,11,53,8.40
2009,02,20,11,54,8.50
2009,02,20,11,55,8.60
2009,02,20,11,56,8.60
2009,02,20,11,57,8.70
2009,02,20,11,58,8.70
2009,02,20,11,59,8.70
2009,02,20,12,00,8.80
2009,02,20,12,01,8.80
2009,02,20,12,02,8.70
2009,02,20,12,03,8.70
2009,02,20,12,04,8.70
2009,02,20,12,05,8.70
2009,02,20,12,06,8.70
2009,02,20,12,07,8.70
2009,02,20,12,08,8.70
2009,02,20,12,09,8.80
2009,02,20,12,10,8.80
2009,02,20,12,11,8.90
2009,02,20,12,12,8.90
2009,02,20,12,13,8.90
2009,02,20,12,14,8.90
2009,02,20,12,15,8.90
2009,02,20,12,16,8.90
2009,02,20,12,17,9.00
2009,02,20,12,18,9.00
2009,02,20,12,19,9.10
2009,02,20,12,20,9.10
2009,02,20,12,21,9.10
2009,02,20,12,22,9.10
2009,02,20,12,23,9.20
2009,02,20,12,24,9.20
2009,02,20,12,25,9.30
2009,02,20,12,26,9.30
2009,02,20,12,27,9.30
2009,02,20,12,28,9.30
2009,02,20,12,29,9.40
2009,02,20,12,30,9.40
2009,02,20,12,31,9.30
2009,02,20,12,32,9.30
2009,02,20,12,33,9.40
2009,02,20,12,34,9.40
2009,02,20,12,35,9.40
2009,02,20,12,36,9.40
2009,02,20,12,37,9.40
2009,02,20,12,38,9.30
2009,02,20,12,39,9.30
2009,02,20,12,40,9.30
2009,02,20,12,41,9.30
2009,02,20,12,42,9.30
2009,02,20,12,43,9.20
2009,02,20,12,44,9.20
2009,02,20,12,45,9.20
2009,02,20,12,46,9.20
2009,02,20,12,47,9.20
2009,02,20,12,48,9.20
2009,02,20,12,49,9.20
2009,02,20,12,50,9.20
2009,02,20,12,51,9.10
2009,02,20,12,52,9.10
2009,02,20,12,53,9.10
2009,02,20,12,54,9.00
2009,02,20,12,55,9.00
2009,02,20,12,56,9.00
2009,02,20,12,57,9.00
2009,02,20,12,58,9.00
2009,02,20,12,59,9.00
2009,02,20,13,00,9.10
2009,02,20,13,01,9.10
2009,02,20,13,02,9.10
2009,02,20,13,03,9.10
2009,02,20,13,04,9.10
2009,02,20,13,05,9.10
2009,02,20,13,06,9.20
2009,02,20,13,07,9.20
2009,02,20,13,08,9.30
2009,02,20,13,09,9.30
2009,02,20,13,10,9.30
2009,02,20,13,11,9.40
2009,02,20,13,12,9.40
2009,02,20,13,13,9.50
2009,02,20,13,14,9.60
2009,02,20,13,15,9.70
2009,02,20,13,16,9.80
2009,02,20,13,17,9.80
2009,02,20,13,18,9.80
2009,02,20,13,19,9.70
2009,02,20,13,20,9.70
2009,02,20,13,21,9.70
2009,02,20,13,22,9.70
2009,02,20,13,23,9.70
2009,02,20,13,24,9.70
2009,02,20,13,25,9.80
2009,02,20,13,26,9.80
2009,02,20,13,27,9.90
2009,02,20,13,28,9.90
2009,02,20,13,29,10.00
2009,02,20,13,30,10.10
2009,02,20,13,31,10.10
2009,02,20,13,32,10.10
2009,02,20,13,33,10.10
2009,02,20,13,34,10.10
2009,02,20,13,35,10.10
2009,02,20,13,36,10.10
2009,02,20,13,37,10.00
2009,02,20,13,38,9.90
2009,02,20,13,39,9.90
2009,02,20,13,40,9.90
2009,02,20,13,41,9.80
2009,02,20,13,42,9.80
2009,02,20,13,43,9.80
2009,02,20,13,44,9.80
2009,02,20,13,45,9.80
2009,02,20,13,46,9.70
2009,02,20,13,47,9.70
2009,02,20,13,48,9.70
2009,02,20,13,49,9.70
2009,02,20,13,50,9.70
2009,02,20,13,51,9.70
2009,02,20,13,52,9.70
2009,02,20,13,53,9.70
2009,02,20,13,54,9.70
2009,02,20,13,55,9.70
2009,02,20,13,56,9.70
2009,02,20,13,57,9.70
2009,02,20,13,58,9.70
2009,02,20,13,59,9.70
2009,02,20,14,00,9.70
2009,02,20,14,01,9.70
2009,02,20,14,02,9.70
2009,02,20,14,03,9.70
2009,02,20,14,04,9.70
2009,02,20,14,05,9.80
2009,02,20,14,06,9.80
2009,02,20,14,07,9.90
2009,02,20,14,08,9.90
2009,02,20,14,09,9.90
2009,02,20,14,10,9.90
2009,02,20,14,11,9.90
2009,02,20,14,12,9.80
2009,02,20,14,13,9.80
2009,02,20,14,14,9.80
2009,02,20,14,15,9.80
2009,02,20,14,16,9.80
2009,02,20,14,17,9.80
2009,02,20,14,18,9.80
2009,02,20,14,19,9.80
2009,02,20,14,20,9.80
2009,02,20,14,21,9.80
2009,02,20,14,22,9.80
2009,02,20,14,23,9.80
2009,02,20,14,24,9.80
2009,02,20,14,25,9.80
2009,02,20,14,26,9.80
2009,02,20,14,27,9.70
2009,02,20,14,28,9.70
2009,02,20,14,29,9.70
2009,02,20,14,30,9.70
2009,02,20,14,31,9.70
2009,02,20,14,32,9.70
2009,02,20,14,33,9.60
2009,02,20,14,34,9.70
2009,02,20,14,35,9.70
2009,02,20,14,36,9.70
2009,02,20,14,37,9.70
2009,02,20,14,38,9.70
2009,02,20,14,39,9.60
2009,02,20,14,40,9.60
2009,02,20,14,41,9.60
2009,02,20,14,42,9.60
2009,02,20,14,43,9.60
2009,02,20,14,44,9.60
2009,02,20,14,45,9.60
2009,02,20,14,46,9.70
2009,02,20,14,47,9.70
2009,02,20,14,48,9.70
2009,02,20,14,49,9.80
2009,02,20,14,50,9.80
2009,02,20,14,51,9.80
2009,02,20,14,52,9.80
2009,02,20,14,53,9.80
2009,02,20,14,54,9.80
2009,02,20,14,55,9.80
2009,02,20,14,56,9.90
2009,02,20,14,57,9.90
2009,02,20,14,58,9.90
2009,02,20,14,59,9.90
2009,02,20,15,00,9.90
2009,02,20,15,01,9.90
2009,02,20,15,02,9.90
2009,02,20,15,03,9.90
2009,02,20,15,04,9.90
2009,02,20,15,05,9.90
2009,02,20,15,06,9.90
2009,02,20,15,07,9.90
2009,02,20,15,08,9.90
2009,02,20,15,09,9.90
2009,02,20,15,10,9.80
2009,02,20,15,11,9.80
2009,02,20,15,12,9.80
2009,02,20,15,13,9.80
2009,02,20,15,14,9.80
2009,02,20,15,15,9.80
2009,02,20,15,16,9.80
2009,02,20,15,17,9.80
2009,02,20,15,18,9.80
2009,02,20,15,19,9.80
2009,02,20,15,20,9.80
2009,02,20,15,21,9.80
2009,02,20,15,22,9.80
2009,02,20,15,23,9.80
2009,02,20,15,24,9.80
2009,02,20,15,25,9.80
2009,02,20,15,26,9.80
2009,02,20,15,27,9.90
2009,02,20,15,28,9.90
2009,02,20,15,29,9.90
2009,02,20,15,30,9.90
2009,02,20,15,31,9.80
2009,02,20,15,32,9.80
2009,02,20,15,33,9.80
2009,02,20,15,34,9.80
2009,02,20,15,35,9.80
2009,02,20,15,36,9.80
2009,02,20,15,37,9.80
2009,02,20,15,38,9.90
2009,02,20,15,39,9.90
2009,02,20,15,40,9.90
2009,02,20,15,41,9.90
2009,02,20,15,42,9.90
2009,02,20,15,43,9.90
2009,02,20,15,44,9.80
2009,02,20,15,45,9.80
2009,02,20,15,46,9.80
2009,02,20,15,47,9.80
2009,02,20,15,48,9.80
2009,02,20,15,49,9.70
2009,02,20,15,50,9.70
2009,02,20,15,51,9.70
2009,02,20,15,52,9.70
2009,02,20,15,53,9.80
2009,02,20,15,54,9.80
2009,02,20,15,55,9.80
2009,02,20,15,56,9.80
2009,02,20,15,57,9.80
2009,02,20,15,58,9.70
2009,02,20,15,59,9.70
2009,02,20,16,00,9.70
2009,02,20,16,01,9.70
2009,02,20,16,02,9.60
2009,02,20,16,03,9.60
2009,02,20,16,04,9.50
2009,02,20,16,05,9.50
2009,02,20,16,06,9.40
2009,02,20,16,07,9.40
2009,02,20,16,08,9.40
2009,02,20,16,09,9.40
2009,02,20,16,10,9.40
2009,02,20,16,11,9.30
2009,02,20,16,12,9.30
2009,02,20,16,13,9.30
2009,02,20,16,14,9.30
2009,02,20,16,15,9.20
2009,02,20,16,16,9.20
2009,02,20,16,17,9.20
2009,02,20,16,18,9.20
2009,02,20,16,19,9.20
2009,02,20,16,20,9.20
2009,02,20,16,21,9.20
2009,02,20,16,22,9.20
2009,02,20,16,23,9.20
2009,02,20,16,24,9.20
2009,02,20,16,25,9.20
2009,02,20,16,26,9.20
2009,02,20,16,27,9.20
2009,02,20,16,28,9.20
2009,02,20,16,29,9.20
2009,02,20,16,30,9.20
2009,02,20,16,31,9.10
2009,02,20,16,32,9.10
2009,02,20,16,33,9.10
2009,02,20,16,34,9.10
2009,02,20,16,35,9.10
2009,02,20,16,36,9.10
2009,02,20,16,37,9.10
2009,02,20,16,38,9.10
2009,02,20,16,39,9.10
2009,02,20,16,40,9.10
2009,02,20,16,41,9.10
2009,02,20,16,42,9.00
2009,02,20,16,43,9.00
2009,02,20,16,44,9.00
2009,02,20,16,45,8.90
2009,02,20,16,46,8.90
2009,02,20,16,47,8.90
2009,02,20,16,48,8.90
2009,02,20,16,49,8.90
2009,02,20,16,50,8.90
2009,02,20,16,51,8.80
2009,02,20,16,52,8.80
2009,02,20,16,53,8.80
2009,02,20,16,54,8.80
2009,02,20,16,55,8.80
2009,02,20,16,56,8.80
2009,02,20,16,57,8.80
2009,02,20,16,58,8.80
2009,02,20,16,59,8.70
2009,02,20,17,00,8.70
2009,02,20,17,01,8.70
2009,02,20,17,02,8.70
2009,02,20,17,03,8.70
2009,02,20,17,04,8.70
2009,02,20,17,05,8.70
2009,02,20,17,06,8.70
2009,02,20,17,07,8.60
2009,02,20,17,08,8.60
2009,02,20,17,09,8.60
2009,02,20,17,10,8.60
2009,02,20,17,11,8.50
2009,02,20,17,12,8.50
2009,02,20,17,13,8.50
2009,02,20,17,14,8.40
2009,02,20,17,15,8.40
2009,02,20,17,16,8.40
2009,02,20,17,17,8.40
2009,02,20,17,18,8.40
2009,02,20,17,19,8.30
2009,02,20,17,20,8.30
2009,02,20,17,21,8.30
2009,02,20,17,22,8.20
2009,02,20,17,23,8.20
2009,02,20,17,24,8.20
2009,02,20,17,25,8.20
2009,02,20,17,26,8.10
2009,02,20,17,27,8.10
2009,02,20,17,28,8.10
2009,02,20,17,29,8.10
2009,02,20,17,30,8.00
2009,02,20,17,31,8.00
2009,02,20,17,32,8.00
2009,02,20,17,33,7.90
2009,02,20,17,34,7.90
2009,02,20,17,35,7.90
2009,02,20,17,36,7.90
2009,02,20,17,37,7.90
2009,02,20,17,38,7.80
2009,02,20,17,39,7.80
2009,02,20,17,40,7.80
2009,02,20,17,41,7.80
2009,02,20,17,42,7.70
2009,02,20,17,43,7.70
2009,02,20,17,44,7.70
2009,02,20,17,45,7.70
2009,02,20,17,46,7.60
2009,02,20,17,47,7.60
2009,02,20,17,48,7.60
2009,02,20,17,49,7.50
2009,02,20,17,50,7.50
2009,02,20,17,51,7.50
2009,02,20,17,52,7.40
2009,02,20,17,53,7.40
2009,02,20,17,54,7.40
2009,02,20,17,55,7.30
2009,02,20,17,56,7.30
2009,02,20,17,57,7.30
2009,02,20,17,58,7.20
2009,02,20,17,59,7.20
2009,02,20,18,00,7.20
2009,02,20,18,01,7.20
2009,02,20,18,02,7.20
2009,02,20,18,03,7.10
2009,02,20,18,04,7.10
2009,02,20,18,05,7.10
2009,02,20,18,06,7.00
2009,02,20,18,07,7.00
2009,02,20,18,08,6.90
2009,02,20,18,09,6.90
2009,02,20,18,10,6.80
2009,02,20,18,11,6.80
2009,02,20,18,12,6.80
2009,02,20,18,13,6.70
2009,02,20,18,14,6.70
2009,02,20,18,15,6.70
2009,02,20,18,16,6.60
2009,02,20,18,17,6.60
2009,02,20,18,18,6.50
2009,02,20,18,19,6.50
2009,02,20,18,20,6.40
2009,02,20,18,21,6.40
2009,02,20,18,22,6.30
2009,02,20,18,23,6.30
2009,02,20,18,24,6.30
2009,02,20,18,25,6.20
2009,02,20,18,26,6.20
2009,02,20,18,27,6.10
2009,02,20,18,28,6.10
2009,02,20,18,29,6.10
2009,02,20,18,30,6.00
2009,02,20,18,31,5.90
2009,02,20,18,32,5.90
2009,02,20,18,33,5.80
2009,02,20,18,34,5.80
2009,02,20,18,35,5.80
2009,02,20,18,36,5.70
2009,02,20,18,37,5.70
2009,02,20,18,38,5.70
2009,02,20,18,39,5.60
2009,02,20,18,40,5.60
2009,02,20,18,41,5.50
2009,02,20,18,42,5.50
2009,02,20,18,43,5.40
2009,02,20,18,44,5.40
2009,02,20,18,45,5.30
2009,02,20,18,46,5.30
2009,02,20,18,47,5.20
2009,02,20,18,48,5.20
2009,02,20,18,49,5.20
2009,02,20,18,50,5.20
2009,02,20,18,51,5.10
2009,02,20,18,52,5.10
2009,02,20,18,53,5.10
2009,02,20,18,54,5.10
2009,02,20,18,55,5.00
2009,02,20,18,56,5.00